TimeEDT,TemperatureF,Dew PointF,Humidity,Sea Level PressureIn,VisibilityMPH,Wind Direction,Wind SpeedMPH,Gust SpeedMPH,PrecipitationIn,Events,Conditions,WindDirDegrees,DateUTC
12:56 AM,36.0,24.1,62,30.43,10.0,NNW,8.1,-,N/A,,Clear,340,2012-10-13 04:56:00
1:56 AM,33.8,24.8,70,30.42,10.0,NNW,8.1,-,N/A,,Clear,330,2012-10-13 05:56:00
2:56 AM,33.8,24.8,70,30.43,10.0,Calm,Calm,-,N/A,,Clear,0,2012-10-13 06:56:00
3:56 AM,30.9,25.0,79,30.45,10.0,NNW,4.6,-,N/A,,Clear,340,2012-10-13 07:56:00
4:56 AM,32.0,24.1,73,30.48,10.0,NNW,3.5,-,N/A,,Clear,330,2012-10-13 08:56:00
6:56 AM,30.9,23.0,72,30.49,10.0,NNW,5.8,-,N/A,,Clear,340,2012-10-13 10:56:00
7:56 AM,34.0,25.0,70,30.51,10.0,Calm,Calm,-,N/A,,Clear,0,2012-10-13 11:56:00
8:56 AM,41.0,28.0,60,30.52,10.0,NW,3.5,-,N/A,,Clear,320,2012-10-13 12:56:00
9:56 AM,44.1,21.0,40,30.52,10.0,Variable,3.5,-,N/A,,Clear,0,2012-10-13 13:56:00
10:56 AM,46.0,21.0,37,30.52,10.0,Calm,Calm,-,N/A,,Clear,0,2012-10-13 14:56:00
11:56 AM,48.9,21.9,35,30.50,10.0,Calm,Calm,-,N/A,,Clear,0,2012-10-13 15:56:00
12:56 PM,48.9,23.0,36,30.47,10.0,Calm,Calm,-,N/A,,Clear,0,2012-10-13 16:56:00
1:56 PM,50.0,23.0,35,30.43,10.0,SSE,9.2,-,N/A,,Clear,160,2012-10-13 17:56:00
2:56 PM,51.1,21.9,32,30.41,10.0,Calm,Calm,-,N/A,,Clear,0,2012-10-13 18:56:00
3:56 PM,52.0,19.9,28,30.40,10.0,WSW,4.6,-,N/A,,Clear,240,2012-10-13 19:56:00
4:56 PM,51.1,26.1,38,30.38,10.0,SSE,8.1,-,N/A,,Clear,160,2012-10-13 20:56:00
5:56 PM,48.9,28.0,44,30.40,10.0,South,6.9,-,N/A,,Clear,170,2012-10-13 21:56:00
6:56 PM,46.9,30.9,54,30.38,10.0,SSE,3.5,-,N/A,,Clear,160,2012-10-13 22:56:00
7:56 PM,46.9,34.0,61,30.38,10.0,SSE,5.8,-,N/A,,Scattered Clouds,160,2012-10-13 23:56:00
9:56 PM,44.6,37.4,76,30.33,10.0,Calm,Calm,-,N/A,,Clear,0,2012-10-14 01:56:00
10:56 PM,46.0,37.0,71,30.33,10.0,Calm,Calm,-,N/A,,Clear,0,2012-10-14 02:56:00
11:56 PM,50.0,37.9,63,30.31,10.0,Calm,Calm,-,N/A,,Clear,0,2012-10-14 03:56:00